Rolla, ND

5:55 AM CST on February 25, 2018 (GMT -0600)
Rolla

Weather History for K06D - March, 2013

Change the Weather History Date:

Friday, March 1, 2013

  Actual Average (KRUG) Record (KRUG)
Temperature  
Mean Temperature 6 °F -  
Max Temperature 17 °F 27 °F 53 °F (1992)
Min Temperature -4 °F 8 °F -30 °F (1962)
Degree Days  
Heating Degree Days 58    
Moisture  
Dew Point 7 °F    
Average Humidity 93    
Maximum Humidity 100    
Minimum Humidity 78    
Precipitation  
Precipitation 0.00 in - - ()
Sea Level Pressure  
Sea Level Pressure 30.31 in    
Wind  
Wind Speed 3 mph (SSW)    
Max Wind Speed 12 mph    
Max Gust Speed 17 mph    
Visibility 8 miles    
Events Fog , Rain    
Averages and records for this station are not official NWS values.
T = Trace of Precipitation, MM = Missing Value Source: NWS Daily Summary

Daily Weather History Graph

Daily Weather History Graph

Search for Another Location

Airport or City:

Trip Planner

Search our weather history database for the weather conditions in past years. The results will help you decide how hot, cold, wet, or windy it might be!

Date:

Astronomy

Mar. 01, 2013 Rise Set
Actual Time 7:19 AM CST 6:22 PM CST
Civil Twilight 6:48 AM CST 6:54 PM CST
Nautical Twilight 6:11 AM CST 7:30 PM CST
Astronomical Twilight 5:35 AM CST 8:07 PM CST
Moon 11:26 PM CST (3/1) 8:42 AM CST (3/1)
Length of Visible Light 12h 06m
Length of Day
11h 02m
Waning Gibbous, 83% of the Moon is Illuminated
Mar 1
Waning Gibbous
Mar 4
Last Quarter
Mar 11
New
Mar 19
First Quarter
Mar 27
Full

Hourly Weather History & Observations

Time (CST) Temp. Windchill Dew Point Humidity Pressure Visibility Wind Dir Wind Speed Gust Speed Precip Events Conditions
12:15 AM 12.2 °F - 12.2 °F 100% 30.31 in 10.0 mi Calm Calm - N/A   Overcast
12:35 AM 14.0 °F - 14.0 °F 100% 30.32 in 5.0 mi Calm Calm - N/A   Overcast
1:15 AM 14.0 °F - 14.0 °F 100% 30.32 in 0.5 mi Calm Calm - N/A Fog Light Freezing Fog
1:35 AM 12.2 °F - 12.2 °F 100% 30.32 in 0.2 mi Calm Calm - N/A Fog Light Freezing Fog
1:55 AM 10.4 °F - 10.4 °F 100% 30.31 in 0.2 mi Calm Calm - N/A Fog Light Freezing Fog
2:15 AM 10.4 °F - 10.4 °F 100% 30.31 in 0.2 mi Calm Calm - N/A Fog Light Freezing Fog
2:35 AM 10.4 °F 0.8 °F 10.4 °F 100% 30.32 in 0.2 mi WSW 5.8 mph - N/A Fog Light Freezing Fog
3:35 AM 6.8 °F -0.1 °F 5.0 °F 92% 30.32 in 0.2 mi NW 3.5 mph - N/A Fog Light Freezing Fog
3:55 AM 1.4 °F - -0.4 °F 92% 30.32 in 9.0 mi Calm Calm - N/A   Partly Cloudy
4:15 AM 1.4 °F - -0.4 °F 92% 30.32 in 10.0 mi Calm Calm - N/A   Clear
4:35 AM 1.4 °F - -0.4 °F 92% 30.33 in 10.0 mi Calm Calm - N/A   Clear
4:55 AM 1.4 °F - -0.4 °F 92% 30.33 in 10.0 mi Calm Calm - N/A   Clear
5:15 AM -0.4 °F - -4.0 °F 85% 30.34 in 10.0 mi Calm Calm - N/A   Clear
5:35 AM -0.4 °F - -4.0 °F 85% 30.34 in 10.0 mi Calm Calm - N/A   Clear
6:15 AM -0.4 °F - -2.2 °F 92% 30.34 in 10.0 mi Calm Calm - N/A   Clear
6:35 AM -2.2 °F - -5.8 °F 85% 30.35 in 10.0 mi Calm Calm - N/A   Mostly Cloudy
6:55 AM -2.2 °F - -7.6 °F 78% 30.34 in 10.0 mi Calm Calm - N/A   Overcast
7:15 AM -4.0 °F - -7.6 °F 85% 30.35 in 0.2 mi Calm Calm - N/A Fog Light Freezing Fog
7:35 AM -2.2 °F - -7.6 °F 78% 30.35 in 0.2 mi Calm Calm - N/A Fog Light Freezing Fog
7:55 AM -2.2 °F - -5.8 °F 85% 30.35 in 0.2 mi Calm Calm - N/A Fog Light Freezing Fog
8:15 AM -2.2 °F - -5.8 °F 85% 30.36 in 0.2 mi Calm Calm - N/A Rain Light Freezing Rain
8:35 AM -0.4 °F - -4.0 °F 85% 30.36 in 0.8 mi Calm Calm - N/A   Mostly Cloudy
9:15 AM -0.4 °F - -2.2 °F 92% 30.35 in 0.2 mi Calm Calm - N/A Fog Light Freezing Fog
9:35 AM 1.4 °F - -0.4 °F 92% 30.35 in 0.5 mi Calm Calm - N/A Fog Light Freezing Fog
9:55 AM 5.0 °F - 3.2 °F 92% 30.35 in 9.0 mi Calm Calm - N/A   Clear
10:15 AM 6.8 °F - 6.8 °F 100% 30.36 in 10.0 mi Calm Calm - N/A Rain Light Freezing Rain
10:35 AM 8.6 °F 2.0 °F 8.6 °F 100% 30.36 in 10.0 mi South 3.5 mph - N/A Rain Light Freezing Rain
11:15 AM 14.0 °F 5.1 °F 14.0 °F 100% 30.35 in 10.0 mi South 5.8 mph - N/A Rain Light Freezing Rain
11:35 AM 15.8 °F 7.2 °F 15.8 °F 100% 30.35 in 10.0 mi SSE 5.8 mph - N/A Rain Light Freezing Rain
11:55 AM 15.8 °F 6.1 °F 15.8 °F 100% 30.35 in 10.0 mi SSW 6.9 mph - N/A Rain Light Freezing Rain
12:15 PM 15.8 °F 6.1 °F 15.8 °F 100% 30.35 in 10.0 mi SSW 6.9 mph - N/A Rain Light Freezing Rain
12:35 PM 15.8 °F 4.2 °F 15.8 °F 100% 30.36 in 10.0 mi SSW 9.2 mph - N/A Rain Light Freezing Rain
12:55 PM 15.8 °F 4.2 °F 15.8 °F 100% 30.35 in 10.0 mi SSW 9.2 mph - N/A Rain Light Freezing Rain
1:35 PM 15.8 °F 5.1 °F 15.8 °F 100% 30.34 in 10.0 mi SSW 8.1 mph - N/A Rain Light Freezing Rain
1:55 PM 17.6 °F 7.3 °F 17.6 °F 100% 30.33 in 10.0 mi South 8.1 mph - N/A Rain Light Freezing Rain
2:15 PM 17.6 °F 5.0 °F 15.8 °F 93% 30.32 in 10.0 mi South 11.5 mph - N/A Rain Light Freezing Rain
2:35 PM 17.6 °F 8.2 °F 14.0 °F 86% 30.32 in 10.0 mi SSW 6.9 mph - N/A Rain Light Freezing Rain
2:55 PM 17.6 °F 8.2 °F 14.0 °F 86% 30.32 in 10.0 mi South 6.9 mph - N/A Rain Light Freezing Rain
3:15 PM 17.6 °F 8.2 °F 14.0 °F 86% 30.32 in 10.0 mi SSW 6.9 mph - N/A Rain Light Freezing Rain
3:35 PM 17.6 °F 6.4 °F 14.0 °F 86% 30.32 in 10.0 mi South 9.2 mph - N/A Rain Light Freezing Rain
3:55 PM 15.8 °F 5.1 °F 12.2 °F 86% 30.31 in 10.0 mi South 8.1 mph - N/A Rain Light Freezing Rain
4:15 PM 15.8 °F 5.1 °F 12.2 °F 86% 30.31 in 10.0 mi SSW 8.1 mph - N/A   Clear
4:35 PM 15.8 °F 5.1 °F 12.2 °F 86% 30.31 in 10.0 mi SSW 8.1 mph - N/A   Clear
5:15 PM 14.0 °F 2.9 °F 12.2 °F 93% 30.31 in 10.0 mi SSW 8.1 mph - N/A   Clear
5:35 PM 12.2 °F 1.7 °F 10.4 °F 92% 30.31 in 10.0 mi SSW 6.9 mph - N/A   Clear
5:55 PM 12.2 °F 0.7 °F 10.4 °F 92% 30.31 in 10.0 mi South 8.1 mph - N/A   Clear
6:15 PM 8.6 °F -4.7 °F 8.6 °F 100% 30.31 in 10.0 mi SSW 9.2 mph - N/A   Clear
6:35 PM 8.6 °F -4.7 °F 8.6 °F 100% 30.30 in 10.0 mi SSW 9.2 mph - N/A   Clear
6:55 PM 8.6 °F -6.3 °F 8.6 °F 100% 30.29 in 10.0 mi SSW 11.5 mph - N/A   Clear
7:15 PM 8.6 °F -6.3 °F 6.8 °F 92% 30.30 in 10.0 mi SSW 11.5 mph - N/A   Clear
7:35 PM 8.6 °F -5.5 °F 6.8 °F 92% 30.29 in 10.0 mi SSW 10.4 mph - N/A   Clear
8:15 PM 8.6 °F -5.5 °F 8.6 °F 100% 30.27 in 10.0 mi South 10.4 mph - N/A   Clear
8:35 PM 8.6 °F -4.7 °F 8.6 °F 100% 30.26 in 10.0 mi South 9.2 mph - N/A   Clear
8:55 PM 6.8 °F -6.9 °F 5.0 °F 92% 30.27 in 10.0 mi SSW 9.2 mph - N/A   Clear
9:15 PM 6.8 °F -6.9 °F 6.8 °F 100% 30.26 in 10.0 mi South 9.2 mph - N/A   Clear
9:35 PM 8.6 °F -5.5 °F 6.8 °F 92% 30.26 in 10.0 mi South 10.4 mph - N/A   Clear
9:55 PM 8.6 °F -5.5 °F 6.8 °F 92% 30.25 in 10.0 mi South 10.4 mph - N/A   Clear
10:15 PM 8.6 °F -5.5 °F 6.8 °F 92% 30.25 in 10.0 mi South 10.4 mph - N/A   Clear
10:35 PM 5.0 °F -9.1 °F 3.2 °F 92% 30.24 in 10.0 mi SSW 9.2 mph - N/A   Clear
10:55 PM 5.0 °F -9.1 °F 3.2 °F 92% 30.24 in 10.0 mi SSW 9.2 mph - N/A   Mostly Cloudy
11:15 PM 5.0 °F -10.8 °F 3.2 °F 92% 30.23 in 10.0 mi SSW 11.5 mph - N/A   Scattered Clouds
11:35 PM 8.6 °F -6.3 °F 6.8 °F 92% 30.22 in 10.0 mi South 11.5 mph - N/A   Mostly Cloudy
11:55 PM 10.4 °F -4.1 °F 6.8 °F 85% 30.21 in 10.0 mi SSW 11.5 mph 17.3 mph N/A   Mostly Cloudy